INTELSAT 15 (IS-15)

Last updated on Thu Nov 21 2024 00:02:41 GMT+0000 (Coordinated Universal Time)

1 36106U 09067A 24325.54161959 -.00000184 00000+0 00000+0 0 9996 2 36106 0.0174 319.2431 0002582 288.8990 92.0550 1.00271509 35479
UTC large
Height (km)
Speed (km/s)
/
Latitude / Longitude
Inclination (degrees)
Orbital Period (minutes)
Azimuth
Elevation
Range (km)
Doppler Factor

Next 0 passes for location: London (51.5072 / 0.1276)

Sorry there are no passes over London.